Regional Weather Roundup
Issued by NWS

Home | Current Version | Previous Version | Graphics & Text | Print | Product List | Glossary On
Versions: 1 2 3 4 5 6 7 8 9 10 11 12 13 14 15 16 17 18 19 20 21 22 23 24 25 26 27 28 29 30 31 32 33 34 35 36 37 38 39 40 41 42 43 44 45 46 47 48 49 50
143
ASUS45 KBOI 231410
RWRID

IDAHO REGIONAL WEATHER ROUNDUP
NATIONAL WEATHER SERVICE BOISE ID
800 AM MDT SUN JUL 23 2017

NOTE: "FAIR" INDICATES FEW OR NO CLOUDS BELOW 12000 FEET
WITH NO SIGNIFICANT WEATHER AND/OR OBSTRUCTIONS TO VISIBILITY

IDZ012-014-231500-
SOUTHWEST IDAHO


CITY           SKY/WX    TMP DP  RH WIND       PRES   REMARKS
BOISE          SUNNY     68  42  38 S6        30.03R
CALDWELL       SUNNY     62  52  69 CALM      30.02R
MOUNTAIN HOME  SUNNY     67  39  35 NW7       30.03R
$$

IDZ016-017-231500-
SOUTHCENTRAL IDAHO


CITY           SKY/WX    TMP DP  RH WIND       PRES   REMARKS
BURLEY         PTSUNNY   62  48  60 SW5       30.09F
JEROME         MOSUNNY   69  40  34 E5        30.10R
TWIN FALLS     MOSUNNY   67  40  37 S10       30.10R
$$

IDZ019>023-231500-
SOUTHEAST IDAHO


CITY           SKY/WX    TMP DP  RH WIND       PRES   REMARKS
IDAHO FALLS    PTSUNNY   60  50  69 VRB3      30.16S
POCATELLO      MOSUNNY   69  42  37 CALM      30.15S
REXBURG        MOSUNNY   55  46  71 N5        30.18S
$$

IDZ006-010-011-018-031-032-231500-
CENTRAL IDAHO MOUNTAINS


CITY           SKY/WX    TMP DP  RH WIND       PRES   REMARKS
MCCALL         SUNNY     54  41  61 CALM      30.15S
HAILEY         SUNNY     59  37  44 NW10      30.20R
STANLEY          N/A     46  34  62 E5        30.29S
SALMON         NOT AVBL
CHALLIS        SUNNY     59  40  49 VRB3      30.18S
$$

IDZ002-004-006-007-026-231500-
NORTHERN IDAHO


CITY           SKY/WX    TMP DP  RH WIND       PRES   REMARKS
LEWISTON       SUNNY     69  52  54 E5        30.00R
LOWELL           N/A     57  51  80 CALM      30.07S
COEUR D`ALENE  SUNNY     66  55  67 S3        30.02F
MULLAN PASS    SUNNY     63  41  44 CALM      30.21F
$$




USA.gov is the U.S. government's official web portal to all federal, state and local government web resources and services.